{"data":{"norad_id":69088,"intl_designator":"2026-104R","name":"QIANFAN-142","alt_names":[],"object_type":"PAYLOAD","status":"ACTIVE","operator":null,"country":"PRC","launch_date":"2026-05-12","launch_site_code":"TAISC","launch_vehicle":null,"mission":null,"orbit_class":"UNKNOWN","rcs_meters":null,"size_class":null,"mass_kg":null,"dimensions":null,"purposes":[],"wikipedia_slug":null,"has_3d_model":false,"image_url":null,"decayed_at":null,"tle_current":{"epoch":"2026-05-24T23:10:40.107072Z","epoch_age_seconds":68199,"freshness":"FRESH","line1":"1 69088U 26104R   26144.96574198  .00000084  00000+0  30797-4 0  9991","line2":"2 69088  88.9871 344.2660 0003550 136.1326 224.0148 14.23303746  1795","mean_motion":14.23303746,"eccentricity":0.000355,"inclination_deg":88.9871,"raan_deg":344.266,"arg_perigee_deg":136.1326,"mean_anomaly_deg":224.0148,"bstar":3.0797e-5,"rev_number":179,"period_min":101.1730633076,"perigee_km":811.64812451034,"apogee_km":816.75468477764,"semimajor_km":7192.338404644,"source":"CELESTRAK","updated_at":"2026-05-25T13:38:09.052458Z"}}}